This is the latest recevied weather packets stored in our database for station/object K1LVA. If no packets are shown the sender has not sent any weather packets the latest 10 day(s).
| Time | Temp. | Humidity | Pressure | Rain* | Wind** | Luminosity | Snow |
|---|---|---|---|---|---|---|---|
| 1777757205 | 12.78° C | 94% | 1012.1 hPa | 0 mm | - | 114 W/m² | - |
| 1777756903 | 12.78° C | 95% | 1012 hPa | 0 mm | - | 122 W/m² | - |
| 1777756598 | 12.78° C | 96% | 1012 hPa | 0 mm | - | 106 W/m² | - |
| 1777756296 | 12.78° C | 97% | 1011.9 hPa | 0 mm | - | 136 W/m² | - |
| 1777755993 | 12.78° C | 98% | 1011.9 hPa | 0 mm | - | 142 W/m² | - |
| 1777755690 | 12.78° C | 98% | 1011.8 hPa | 0 mm | - | 176 W/m² | - |
| 1777755387 | 12.78° C | 99% | 1011.8 hPa | 0 mm | - | 183 W/m² | - |
| 1777755083 | 12.78° C | 99% | 1012.1 hPa | 0 mm | - | 268 W/m² | - |
| 1777754780 | 12.22° C | 99% | 1012.1 hPa | 0 mm | - | 175 W/m² | - |
| 1777754478 | 12.22° C | 99% | 1012.1 hPa | 0 mm | - | 128 W/m² | - |
| 1777754175 | 12.22° C | 99% | 1012.2 hPa | 0 mm | - | 103 W/m² | - |
| 1777753873 | 12.22° C | 99% | 1012.3 hPa | 0 mm | - | 80 W/m² | - |
| 1777753568 | 12.22° C | 99% | 1012.2 hPa | 0 mm | - | 84 W/m² | - |
| 1777753266 | 12.22° C | 99% | 1012.1 hPa | 0 mm | - | 95 W/m² | - |
| 1777752962 | 12.22° C | 99% | 1012.1 hPa | 0 mm | - | 89 W/m² | - |
| 1777752659 | 12.22° C | 99% | 1012 hPa | 0 mm | - | 90 W/m² | - |
| 1777752354 | 12.22° C | 99% | 1012.1 hPa | 0 mm | - | 98 W/m² | - |
| 1777752052 | 12.78° C | 99% | 1012.2 hPa | 0 mm | - | 92 W/m² | - |
| 1777751750 | 12.78° C | 99% | 1012.2 hPa | 0 mm | - | 87 W/m² | - |
| 1777751446 | 12.78° C | 99% | 1012 hPa | 0 mm | - | 93 W/m² | - |
| 1777751143 | 12.78° C | 99% | 1012.3 hPa | 0 mm | - | 95 W/m² | - |
| 1777750839 | 12.78° C | 99% | 1012.3 hPa | 0 mm | - | 43 W/m² | - |
| 1777750536 | 12.78° C | 99% | 1012.4 hPa | 0 mm | - | 65 W/m² | - |
| 1777750232 | 12.78° C | 99% | 1012.2 hPa | 0 mm | - | 95 W/m² | - |
| 1777749928 | 12.78° C | 99% | 1012.3 hPa | 0 mm | - | 101 W/m² | - |
* Rain latest hour (hover to see other rain measurements)
** Current wind speed in m/s (hover to see current wind gust speed)